Location: Fa?a Ro?ie
(45.7833°N, 22.5833°E)
Time: 06:21:06
(UTC+00:00)

Daily predictions for brighter satellites

Satellite Brightness Start Highest point End
(mag) Time Altitude Azimuth Time Altitude Azimuth Time Altitude Azimuth
Cosmos 2322 Rocket 3.4 18:50:38 10° SSE 18:54:58 23° E 18:59:18 10° NE
Cosmos 2360 Rocket 4.0 18:53:09 10° ESE 18:55:32 13° E 18:57:56 10° ENE
Cosmos 2056 Rocket 3.6 18:51:07 10° S 18:56:13 61° ESE 19:01:25 10° NNE
Cosmos 2278 3.8 18:51:23 10° SSW 18:57:05 86° ESE 19:02:48 10° NNE
SL-8 R/B 4.2 18:52:44 10° W 18:57:31 64° N 19:02:17 10° ENE
Cosmos 1315 Rocket 3.7 18:55:49 10° N 18:59:42 37° ENE 19:03:32 10° SE
Cosmos 1470 3.3 18:56:38 10° N 19:00:29 44° ENE 19:04:16 10° SSE
CZ-2C R/B 4.2 19:00:23 10° NNE 19:04:57 44° E 19:09:30 10° S
Cosmos 407 Rocket 3.9 18:59:57 10° NNW 19:05:14 66° WSW 19:10:26 10° S
OBJECT-B 3.5 19:03:48 10° SW 19:06:06 18° W 19:08:25 10° NW
Okean 2 3.6 19:03:08 10° S 19:07:07 53° E 19:11:06 10° NNE
ERS-2 4.0 19:03:48 10° N 19:07:09 35° WNW 19:10:30 10° SW
NOSS 3-2 (C) 3.5 19:02:45 10° SSW 19:08:04 49° ESE 19:14:08 10° NE
NOSS 3-2 (A) 3.3 19:03:16 10° SSW 19:08:49 83° SE 19:15:17 10° NE
Genesis I 4.0 19:06:42 10° S 19:10:03 30° ESE 19:13:30 10° NE
Cosmos 1238 4.5 19:07:05 10° S 19:10:46 62° E 19:13:54 10° NNE
Meteor 1-22 Rocket 4.5 19:05:30 10° NNW 19:11:29 79° W 19:17:13 10° S
Cosmos 1975 Rocket 4.5 19:08:24 10° SE 19:11:42 21° E 19:15:01 10° NE
Cosmos 1371 Rocket 4.0 19:07:36 10° SSW 19:12:46 87° WNW 19:17:59 10° NNE
Cosmos 1980 Rocket 2.8 19:08:50 10° SW 19:14:25 61° WNW 19:20:00 10° NNE
Geosat 4.4 19:10:16 10° SE 19:15:09 55° ENE 19:20:05 10° NNW
Cosmos 1190 Rocket 4.3 19:09:58 10° NNW 19:15:16 73° WSW 19:20:32 10° SSE
Cosmos 1758 3.9 19:12:53 10° N 19:16:42 42° ENE 19:20:18 11° SSE
Cosmos 1420 Rocket 4.0 19:12:01 10° S 19:17:05 60° ESE 19:22:13 10° NNE
Spot 2 Rocket 4.0 19:12:27 10° SE 19:17:16 47° ENE 19:22:08 10° N
SPOT 3 Rocket 3.7 19:13:40 10° SSE 19:18:49 82° WSW 19:24:03 10° NNW
SPOT 5 3.9 19:16:22 10° SE 19:21:04 36° ENE 19:25:37 10° N
ATLAS 3B R/B 4.3 19:19:11 10° ESE 19:21:05 11° ESE 19:23:01 10° E
Cosmos 1674 Rocket 3.7 19:16:59 10° SSW 19:21:23 77° W 19:25:47 10° N
Aureole 2 Rocket 4.3 19:19:56 10° WNW 19:21:29 15° WSW 19:23:02 10° SW
Cosmos 1934 Rocket 4.4 19:16:09 10° NNW 19:22:10 64° W 19:28:13 10° S
ARIANE 5 R/B 3.2 19:19:49 11° SE 19:23:51 45° ENE 19:28:07 10° N
Cosmos 1674 4.0 19:25:18 13° SE 19:27:45 23° E 19:30:44 10° NE
IGS 5A 4.1 19:23:54 10° S 19:27:58 54° W 19:32:04 10° NNW
ERS-1 Rocket 3.6 19:24:55 12° SE 19:29:18 42° ENE 19:34:03 10° N
Cosmos 1844 Rocket 3.9 19:29:38 10° N 19:34:43 32° NE 19:39:37 11° ESE
Cosmos 292 Rocket 3.8 19:30:27 10° S 19:35:13 60° ESE 19:39:59 10° NNE
Lacrosse 5 1.9 19:30:51 10° NW 19:35:57 80° NE 19:40:21 14° SE
USA 215 3.8 19:35:51 10° ENE 19:41:40 33° SE 19:47:27 10° S
Cosmos 1727 Rocket 4.0 19:35:53 10° S 19:42:09 70° E 19:48:25 10° NNE
USA 238 DEB 3.8 19:36:44 10° SW 19:43:16 81° NW 19:50:13 10° NE
Terra 2.6 19:39:41 14° SE 19:43:17 38° ENE 19:47:41 10° N
USA 238 3.8 19:36:50 10° SW 19:43:23 82° NW 19:50:19 10° NE
Cosmos 1908 4.2 19:40:20 10° N 19:43:53 32° ENE 19:46:15 17° SE
Cosmos 1953 3.0 19:42:41 10° N 19:46:33 40° ENE 19:49:11 18° SE
Cosmos 2263 Rocket 2.8 19:41:23 10° NW 19:46:55 54° WSW 19:52:12 11° S
Cosmos 676 Rocket 4.4 19:42:05 10° NNW 19:47:23 64° WSW 19:52:13 12° S
USA 81 4.1 19:42:59 10° N 19:48:18 90° ENE 19:53:16 12° S
BREEZE-M DEB (TANK) 2.4 19:44:36 10° WNW 19:48:41 62° NNE 19:50:08 18° ESE
Cosmos 2285 Rocket 4.1 19:42:17 10° SSW 19:48:44 87° WNW 19:55:14 10° NNE
Cosmos 1605 Rocket 4.5 19:42:37 10° NNW 19:48:58 63° W 19:55:14 10° S
Cosmos 1954 Rocket 4.5 19:44:41 10° NNW 19:49:56 59° WSW 19:54:45 12° S
Cosmos 1707 2.9 19:46:34 10° SSW 19:50:25 73° W 19:54:19 10° N
Cosmos 1726 3.1 19:51:06 10° NNW 19:54:33 41° W 19:57:58 10° SSW
Okean 1 Rocket 3.9 19:50:41 10° NNW 19:54:52 47° W 19:59:04 10° SSW
Cosmos 2333 Rocket 3.7 19:52:46 15° SE 19:54:57 19° E 19:58:47 10° ENE
Cosmos 1802 Rocket 4.5 19:50:07 10° N 19:56:08 47° ENE 20:00:41 18° SE
Cosmos 1340 4.4 19:56:32 16° ESE 19:57:38 18° E 20:00:14 10° NE
Cosmos 1455 Rocket 3.2 19:55:48 10° N 20:00:14 63° E 20:03:12 20° SSE
In-Cosmos 22 4.0 19:56:06 10° S 20:01:24 87° E 20:06:43 10° NNE
Aureole 1 Rocket 4.4 19:56:15 10° NNW 20:01:38 52° ENE 20:06:45 18° SE
ATLAS CENTAUR R/B 3.5 19:59:08 10° N 20:02:22 20° NE 20:05:44 10° E
CENTAUR R/B 3.0 19:56:33 10° SW 20:02:28 67° NW 20:09:36 10° NE
Meteor 2-20 Rocket 4.5 19:58:11 10° S 20:04:19 88° W 20:10:28 10° N
Cosmos 1844 4.2 20:06:33 10° NNW 20:11:57 48° ENE 20:15:46 19° SE
Cosmos 1110 Rocket 4.2 20:10:13 18° S 20:13:54 49° ESE 20:18:55 10° NNE
USA 267 4.1 20:09:39 10° E 20:15:50 47° NNE 20:22:04 10° NW
H-2A R/B 3.7 20:13:25 10° NNE 20:17:25 50° E 20:19:30 25° SSE
Cosmos 2219 Rocket 3.4 20:16:37 20° SE 20:18:35 24° ESE 20:23:04 10° NE
Resurs 01 Rocket 4.1 20:19:40 10° SW 20:22:19 16° W 20:24:58 10° NW
Cosmos 1459 Rocket 3.9 20:17:33 10° N 20:23:39 90° E 20:27:56 20° S
Cosmos 1536 Rocket 4.3 20:24:36 26° SE 20:26:26 38° E 20:30:34 10° NNE
Cosmos 2061 Rocket 4.2 20:20:17 10° N 20:26:41 63° ENE 20:30:46 23° SSE
Cosmos 1000 Rocket 4.4 20:22:41 14° S 20:28:02 90° W 20:34:13 10° N
Cosmos 1452 Rocket 4.1 20:27:57 10° SW 20:33:09 59° WNW 20:38:24 10° NNE
KORONAS-FOTON 4.4 20:30:54 16° SSW 20:33:47 54° WNW 20:37:32 10° N
SL-16 R/B 3.1 20:28:46 10° SW 20:34:16 51° WNW 20:39:49 10° NNE
CZ-4B DEB 4.3 20:34:17 37° S 20:35:22 70° WSW 20:38:33 10° NNW
Cosmos 405 3.5 20:32:12 10° N 20:35:31 42° ENE 20:36:28 33° ESE
Cosmos 2322 Rocket 2.8 20:32:54 10° SW 20:38:32 60° WNW 20:44:12 10° NNE
Cosmos 2360 Rocket 2.1 20:33:01 10° SSW 20:38:38 85° ESE 20:44:18 10° NNE
SL-8 R/B 3.7 20:35:32 10° WNW 20:40:21 79° NNE 20:44:13 16° ESE
Cosmos 1626 2.1 20:38:36 29° SSW 20:40:22 83° W 20:44:05 10° N
Cosmos 1864 Rocket 4.5 20:35:53 10° N 20:42:07 77° E 20:45:46 26° SSE
COSMOS 2428 3.5 20:44:06 26° SE 20:46:01 33° ESE 20:51:06 10° NE
Cosmos 1025 Rocket 3.2 20:44:29 22° SSW 20:47:13 72° W 20:51:37 10° N
Cosmos 2123 Rocket 4.0 20:43:39 22° S 20:47:56 82° E 20:54:17 10° N
Cosmos 1975 Rocket 4.4 20:45:17 10° SW 20:49:18 36° WNW 20:53:23 10° N
Cosmos 2322 3.9 20:48:30 27° S 20:51:18 52° ESE 20:56:47 10° NE
Meteor 2-5 Rocket 3.7 20:53:53 29° S 20:56:42 66° E 21:02:13 10° NNE
Cosmos 2228 4.0 20:54:17 10° N 20:58:22 36° ENE 20:59:52 28° ESE
SPOT 5 4.3 20:55:35 16° SSW 20:59:07 33° W 21:03:39 10° NNW
Cosmos 1346 Rocket 3.9 20:59:47 28° ESE 21:00:20 29° E 21:03:50 10° NNE
Cosmos 1455 4.2 20:57:52 10° NNE 21:00:29 17° ENE 21:01:34 16° E
Cosmos 2233 Rocket 4.0 20:55:13 10° N 21:01:22 68° E 21:04:32 30° SSE
Cosmos 2278 Rocket 3.7 20:56:35 10° N 21:01:28 29° NE 21:05:36 13° ESE
Cosmos 1331 Rocket 4.2 20:59:24 16° SSW 21:03:38 70° WNW 21:08:55 10° NNE
Cosmos 1900 4.2 21:00:28 10° NNW 21:05:25 87° NE 21:07:26 36° SE
BREEZE-M DEB (TANK) 3.8 20:54:56 10° SW 21:06:29 42° SSE 21:10:08 10° E
Cosmos 1300 2.6 21:03:04 10° N 21:06:54 83° W 21:07:53 48° S
Lacrosse 5 rocket 0.9 21:08:00 56° S 21:08:23 61° SE 21:11:56 10° NE
ATLAS 3B R/B 2.6 21:05:51 20° SSW 21:10:24 65° ESE 21:17:05 10° NE
FALCON 9 DEB 3.1 21:13:32 12° WSW 21:16:44 78° NNW 21:20:09 10° ENE
ATLAS CENTAUR R/B 4.3 21:16:07 20° ESE 21:17:27 21° E 21:24:18 10° ENE
Lacrosse 5 3.4 21:14:40 10° WNW 21:18:25 21° WSW 21:19:33 19° SW
Cosmos 1844 Rocket 3.3 21:13:23 10° NW 21:18:47 46° WSW 21:21:16 28° SSW
Cosmos 1302 Rocket 3.9 21:17:22 30° SSW 21:20:02 85° ESE 21:25:20 10° NNE
Cosmos 1461 3.4 21:16:07 10° NW 21:20:06 41° WSW 21:20:50 37° SSW
Terra 3.4 21:18:33 17° SW 21:21:07 26° W 21:25:07 10° NW
Cosmos 1726 Rocket 4.2 21:20:19 10° N 21:24:37 44° ENE 21:25:54 34° ESE
USA 215 3.3 21:18:30 10° NE 21:25:04 80° NW 21:31:37 10° WSW
Cosmos 2333 4.4 21:25:50 18° SW 21:30:10 70° WNW 21:35:54 10° NNE
ALOS 2 3.1 21:30:05 36° ESE 21:31:26 50° ENE 21:35:42 10° N
Cosmos 1340 4.1 21:31:14 22° WSW 21:32:56 33° WNW 21:36:24 10° N
Cosmos 389 Rocket 2.3 21:32:42 10° N 21:36:07 71° ENE 21:36:16 69° ESE
Cosmos 1606 Rocket 3.5 21:33:19 10° N 21:37:50 77° E 21:38:58 49° SSE
Cosmos 2333 Rocket 2.4 21:34:43 22° SW 21:38:35 73° WNW 21:44:20 10° NNE
Cosmos 1892 Rocket 4.0 21:37:49 41° SE 21:38:38 46° E 21:42:53 10° NNE
Cosmos 1980 4.5 21:38:20 31° SE 21:39:36 35° ESE 21:44:41 10° NE
ATLAS CENTAUR R/B 1.5 21:37:19 10° NW 21:41:40 71° SW 21:42:39 51° S
Cosmos 1464 Rocket 4.4 21:35:53 10° N 21:42:05 53° ENE 21:45:04 30° SE
GEOS 3 Rocket 4.2 21:44:23 35° SSW 21:45:57 43° WSW 21:51:03 10° NW
SJ 16-02 4.1 21:46:28 10° NE 21:47:41 11° NE 21:48:54 10° ENE
Cosmos 1486 Rocket 3.9 21:44:46 10° NNW 21:50:01 90° NNW 21:51:47 43° SSE
Meteor 1-24 Rocket 4.1 21:50:33 26° SW 21:53:19 52° WNW 21:58:38 10° N
USA 267 3.2 21:54:59 29° SE 21:58:39 75° SW 22:05:13 10° NW
Spot 4 4.3 21:58:00 38° SSW 21:59:22 51° W 22:04:03 10° NNW
Cosmos 1354 Rocket 4.4 21:55:56 10° NNW 22:01:13 58° ENE 22:03:28 33° SE
Cosmos 2219 Rocket 2.7 21:58:17 20° SW 22:02:08 56° WNW 22:07:44 10° NNE
SL-16 R/B 3.8 22:06:27 18° ESE 22:07:37 19° E 22:11:32 10° NE
COBE Rocket 4.2 22:07:24 42° SSW 22:08:57 61° W 22:13:55 10° NNW
Cosmos 1607 4.3 22:03:09 10° NNW 22:09:32 63° NE 22:13:44 22° SE
DNEPR-1 R/B 4.3 22:05:54 10° NW 22:09:48 36° WSW 22:09:57 36° SW
Cosmos 1626 Rocket 4.5 22:10:25 33° ESE 22:11:13 35° E 22:15:17 10° NNE
Meteor 1-21 Rocket 4.3 22:09:36 41° SSE 22:11:28 65° E 22:17:06 10° NNE
Cosmos 1992 Rocket 4.0 22:09:34 40° SSW 22:11:31 82° WNW 22:16:47 10° NNE
Cosmos 968 Rocket 4.0 22:07:35 10° NNW 22:12:25 44° WSW 22:13:42 36° SW
Cosmos 2237 Rocket 2.3 22:12:09 42° SSE 22:13:49 60° ESE 22:19:22 10° NNE
Cosmos 2034 Rocket 4.1 22:07:58 10° N 22:14:09 65° E 22:16:49 34° SSE
Uosat 12 SS-18 rocket 4.4 22:12:32 34° SW 22:14:24 69° NW 22:19:26 10° NNE
FALCON 9 DEB 4.1 22:17:03 36° ENE 22:17:03 36° ENE 22:19:03 10° ENE
FALCON 9 DEB 3.6 22:17:06 48° NE 22:17:06 48° NE 22:19:28 10° ENE
SL-8 R/B 4.3 22:18:14 10° WNW 22:22:09 37° SW 22:22:09 37° SW
Okean 1-7 Rocket 3.5 22:23:24 56° S 22:24:18 80° E 22:28:48 10° N
FALCON 9 DEB 3.5 22:25:12 55° NNE 22:25:12 55° NNE 22:27:49 10° NE
COSMOS 2428 3.7 22:26:04 17° WSW 22:30:09 43° NW 22:35:39 10° NNE
SAR-Lupe-2 3.6 22:27:31 10° N 22:31:04 65° WNW 22:31:21 62° WSW
Tsikada Rocket 4.2 22:33:27 36° SSE 22:35:57 62° E 22:42:02 10° NNE
Cosmos 1455 3.1 22:32:40 10° NNW 22:36:13 36° W 22:36:27 36° W
Cosmos 1184 Rocket 3.6 22:42:42 40° WNW 22:42:42 40° WNW 22:45:46 10° N
SL-4 R/B 2.8 22:44:56 33° E 22:44:56 33° E 22:47:20 10° ENE
Cosmos 2278 Rocket 2.5 22:40:21 10° NW 22:45:51 53° WSW 22:47:25 40° SSW
Cosmos 2058 Rocket 3.7 22:42:36 10° NNW 22:46:49 42° W 22:47:35 38° WSW
USA 32 4.0 22:42:12 10° N 22:47:29 77° E 22:49:16 42° SSE
Lacrosse 5 rocket 3.2 22:44:40 10° W 22:47:42 25° NNW 22:50:45 10° NNE
Cosmos 1503 Rocket 4.4 22:43:29 10° NNW 22:48:40 50° WSW 22:50:02 40° SSW
GRACE-FO 1 4.5 22:45:33 10° N 22:49:20 82° W 22:49:37 74° SSW
GRACE-FO 2 4.5 22:46:00 10° N 22:49:46 81° W 22:50:03 73° SW
NOSS 3-1 (C) 4.2 22:50:29 27° SE 22:51:37 30° ESE 22:56:42 10° NE
GP-B 3.0 22:48:23 10° N 22:52:51 84° E 22:53:50 54° S
Cosmos 1812 Rocket 3.7 22:48:45 10° N 22:53:05 65° E 22:54:11 46° SE
Cosmos 1867 4.1 22:48:28 10° NW 22:53:35 41° WSW 22:54:32 38° SW
Cosmos-2242 4.0 22:50:43 10° N 22:54:52 40° ENE 22:56:30 28° ESE
Thor Agena Rocket 3.7 22:52:16 10° N 22:57:31 66° WNW 22:59:29 37° SW
ATLAS 3B R/B 4.0 22:55:34 10° W 23:01:33 35° NW 23:07:46 10° NNE
BREEZE-M DEB (TANK) 3.9 23:00:45 10° WNW 23:04:52 64° N 23:18:39 10° E
BREEZE-M DEB (TANK) 4.2 23:08:24 18° ENE 23:08:24 18° ENE 23:09:13 10° ENE
Meteor 1-4 Rocket 2.6 23:03:37 10° NNW 23:06:59 59° W 23:06:59 59° W
ALOS 2 4.5 23:07:29 17° W 23:08:03 17° W 23:11:00 10° NW
Cosmos 1328 4.4 23:13:54 39° WSW 23:14:31 43° WNW 23:18:15 10° N
Cosmos 1408 3.6 23:21:16 33° ESE 23:21:56 36° E 23:25:20 10° NNE
Cosmos 1825 Rocket 3.8 23:22:13 41° SSE 23:23:32 60° E 23:27:57 10° NNE
PSLV R/B 4.3 23:22:18 10° N 23:26:22 44° WNW 23:27:42 33° WSW
SJ 16-02 1.3 23:22:37 10° NNW 23:27:02 82° ENE 23:28:33 40° SSE
Cosmos 1892 3.0 23:30:01 47° SSE 23:30:50 60° E 23:34:40 10° NNE
Cosmos 1763 Rocket 4.4 23:35:06 25° SSE 23:37:11 36° ESE 23:41:50 10° NE
Cosmos 1634 Rocket 4.1 23:32:08 10° NNW 23:38:23 65° W 23:41:22 32° SSW
Cosmos 1943 Rocket 2.1 23:34:09 10° NNW 23:39:42 85° ENE 23:43:15 23° SSE
NOSS 2-3 (D) 4.0 23:38:48 39° SSE 23:39:43 46° ESE 23:44:10 10° NE
USA 267 4.4 23:42:18 21° SW 23:42:22 21° WSW 23:47:09 10° WNW
Cosmos 2279 Rocket 4.0 23:36:37 10° N 23:42:55 89° E 23:46:29 28° S
Aureole 3 3.7 23:40:29 10° NNW 23:43:50 44° W 23:44:20 41° WSW
Cosmos 724 4.3 23:38:27 10° NW 23:44:38 72° WSW 23:48:31 23° SSE
Cosmos 1953 Rocket 3.7 23:43:31 38° SSE 23:45:02 66° E 23:49:24 10° NNE
SL-16 R/B 2.3 23:48:19 30° SW 23:51:08 69° WNW 23:56:49 10° NNE
EO 1 Del DPAF 4.5 23:48:22 10° N 23:51:37 29° WNW 23:52:37 25° W
Cosmos 405 Rocket 2.9 23:54:59 39° SSE 23:56:03 58° E 23:59:41 10° NNE
